TimeEDT,TemperatureF,Dew PointF,Humidity,Sea Level PressureIn,VisibilityMPH,Wind Direction,Wind SpeedMPH,Gust SpeedMPH,PrecipitationIn,Events,Conditions,WindDirDegrees,DateUTC
12:53 AM,77.0,66.0,69,29.96,10.0,Calm,Calm,-,N/A,,Partly Cloudy,0,2013-10-15 04:53:00
1:53 AM,77.0,66.0,69,29.95,10.0,Calm,Calm,-,N/A,,Scattered Clouds,0,2013-10-15 05:53:00
2:53 AM,75.0,66.9,76,29.93,10.0,NNW,3.5,-,N/A,,Scattered Clouds,340,2013-10-15 06:53:00
3:53 AM,75.0,68.0,79,29.92,10.0,NNW,3.5,-,N/A,,Scattered Clouds,330,2013-10-15 07:53:00
4:53 AM,75.0,69.1,82,29.91,10.0,NNW,3.5,-,N/A,,Mostly Cloudy,330,2013-10-15 08:53:00
5:53 AM,73.9,69.1,85,29.91,10.0,Calm,Calm,-,N/A,,Scattered Clouds,0,2013-10-15 09:53:00
6:53 AM,73.9,69.1,85,29.93,10.0,NW,4.6,-,N/A,,Partly Cloudy,320,2013-10-15 10:53:00
7:53 AM,75.0,70.0,84,29.94,10.0,Variable,4.6,-,N/A,,Scattered Clouds,0,2013-10-15 11:53:00
8:53 AM,78.1,70.0,76,29.96,10.0,North,4.6,-,N/A,,Scattered Clouds,350,2013-10-15 12:53:00
9:53 AM,81.0,69.1,67,29.97,10.0,North,5.8,-,N/A,,Partly Cloudy,10,2013-10-15 13:53:00
10:51 AM,80.6,69.8,70,29.96,10.0,Variable,3.5,-,N/A,,Mostly Cloudy,0,2013-10-15 14:51:00
10:53 AM,81.0,69.1,67,29.96,10.0,NNE,5.8,-,N/A,,Mostly Cloudy,30,2013-10-15 14:53:00
11:51 AM,86.0,66.2,51,29.95,10.0,ENE,6.9,-,N/A,,Scattered Clouds,60,2013-10-15 15:51:00
11:53 AM,86.0,68.0,55,29.96,10.0,Variable,4.6,-,N/A,,Scattered Clouds,0,2013-10-15 15:53:00
12:53 PM,87.1,66.0,49,29.93,10.0,NE,6.9,-,N/A,,Scattered Clouds,50,2013-10-15 16:53:00
1:53 PM,88.0,63.0,43,29.91,10.0,ENE,11.5,-,N/A,,Scattered Clouds,70,2013-10-15 17:53:00
2:53 PM,88.0,62.1,42,29.89,10.0,East,10.4,16.1,N/A,,Scattered Clouds,80,2013-10-15 18:53:00
3:53 PM,86.0,66.0,51,29.88,10.0,East,11.5,-,N/A,,Mostly Cloudy,80,2013-10-15 19:53:00
4:53 PM,84.9,64.0,49,29.88,10.0,ENE,11.5,-,N/A,,Mostly Cloudy,70,2013-10-15 20:53:00
5:53 PM,82.9,64.0,53,29.89,10.0,ENE,11.5,-,N/A,,Mostly Cloudy,60,2013-10-15 21:53:00
6:53 PM,81.0,66.0,60,29.90,10.0,ENE,11.5,-,N/A,,Scattered Clouds,70,2013-10-15 22:53:00
7:53 PM,80.1,66.9,64,29.91,10.0,NE,8.1,-,N/A,,Scattered Clouds,50,2013-10-15 23:53:00
8:53 PM,80.1,66.9,64,29.93,10.0,NE,5.8,-,N/A,,Clear,50,2013-10-16 00:53:00
9:53 PM,79.0,66.9,66,29.95,10.0,NE,4.6,-,N/A,,Partly Cloudy,40,2013-10-16 01:53:00
10:53 PM,79.0,68.0,69,29.96,10.0,Calm,Calm,-,N/A,,Partly Cloudy,0,2013-10-16 02:53:00
11:53 PM,78.1,68.0,71,29.95,10.0,Calm,Calm,-,N/A,,Partly Cloudy,0,2013-10-16 03:53:00